Location: La Trinit�
(48.1620°N, 3.4512°W)
Time: 03:59:55
(UTC+00:00)

SPOT 1/Viking Rocket - Pass Details

Date: 08 May 2021
Orbit: 776 x 795 km, 98.4° (Epoch: 13 June)

Event Time Altitude Azimuth Distance (km) Brightness Sun altitude
Exits shadow 21:16:47 16° 168° (SSE) 1,978 5.1 -13.9°
Maximum altitude 21:21:02 83° 255° (WSW) 804 3.6 -14.4°
Drops below altitude 10° 21:26:16 10° 344° (NNW) 2,361 7.1 -15.0°
Sets 21:28:36 0° 346° (NNW) 3,292 8.0 -15.2°
